Probability
97 97 94 90 87 84 84 77 74 65 61 55 55 55 52 48 35 26 26 23 26 23 23 19 29 32 32 32 35 29 29 19 10 13 6 10 13 10 3 6 6 0 0
94 94 90 90 87 84 81 77 71 65 65 58 55 55 48 35 26 19 19 19 23 26 26 26 23 19 26 26 29 29 26 29 10 10 6 13 13 10 10 3 0 0 0
94 90 87 87 84 84 77 71 71 68 68 61 55 45 29 26 26 19 19 19 19 16 19 19 19 13 19 23 29 26 29 16 10 10 10 10 13 3 3 3 0 0 0
90 90 87 87 84 84 74 68 68 68 65 65 39 35 23 23 16 13 10 10 13 13 16 13 13 16 13 13 13 16 19 16 13 13 10 6 6 6 3 3 0 0 0
90 90 87 87 84 81 68 68 68 65 55 52 48 39 16 13 6 10 6 6 10 10 13 13 13 13 6 6 10 10 6 6 3 3 3 3 6 3 3 3 3 3 0
84 87 84 84 81 74 68 65 61 55 48 39 35 26 16 6 3 3 6 6 10 10 13 13 13 6 0 0 0 0 3 6 3 3 3 3 0 0 0 3 3 3 3
90 87 84 84 77 74 61 61 55 55 45 42 35 26 16 6 3 0 3 6 6 6 10 10 6 0 0 0 0 0 0 0 0 0 3 3 3 0 3 3 0 3 3
87 87 81 84 71 61 65 55 52 48 42 42 35 29 19 6 6 0 0 6 6 6 10 10 6 6 0 0 0 0 3 0 0 0 3 3 3 3 3 0 0 0 0
87 87 84 77 68 61 61 58 48 42 45 39 32 32 26 6 6 0 0 6 6 6 6 6 6 6 0 0 0 3 3 0 0 0 0 0 0 0 0 0 0 0 0
87 84 84 81 68 61 58 55 45 42 35 35 32 29 26 13 6 0 0 6 6 6 6 6 3 0 0 0 0 3 3 0 0 0 0 0 0 0 0 0 0 0 0
87 81 77 77 71 61 52 52 48 39 35 35 35 29 26 23 6 0 0 6 6 6 10 6 3 0 0 0 0 0 0 0 0 0 0 0 0 0 0 0 0 0 0
87 81 77 81 65 55 55 55 52 42 35 35 35 32 26 19 6 3 0 0 6 6 6 3 0 0 0 0 0 0 0 0 0 3 3 3 0 0 0 0 0 0 0
84 87 74 74 65 58 55 52 45 45 32 32 29 29 19 23 10 3 0 0 0 3 6 3 0 0 0 0 0 0 0 0 3 3 3 3 3 3 3 0 0 0 0
81 74 61 65 61 58 55 42 35 35 29 29 23 19 16 16 13 6 3 0 0 0 0 0 0 0 0 0 0 0 0 3 3 3 0 3 3 3 3 3 3 3 3
77 65 61 61 58 61 45 42 32 32 26 29 26 23 23 19 13 6 3 3 3 3 3 3 3 6 3 3 3 3 3 3 0 0 3 3 3 3 3 3 3 0 0
68 61 48 45 58 45 42 32 19 19 13 10 10 6 13 10 0 0 0 0 0 0 0 3 3 3 3 3 3 3 0 0 0 0 0 3 0 0 0 0 0 0 0
65 58 45 39 35 32 26 26 23 13 3 3 3 0 0 0 0 0 0 0 0 0 0 0 0 6 6 6 6 3 0 0 0 0 3 3 3 0 0 0 0 0 0
58 35 35 39 29 29 23 19 19 26 16 16 3 0 0 0 0 0 0 0 0 0 0 0 0 3 6 6 6 6 3 3 0 0 3 3 0 0 0 0 0 0 0
55 45 39 35 29 29 23 16 16 16 19 19 10 3 0 0 0 0 0 0 0 0 0 0 0 3 3 6 6 6 6 3 3 0 0 0 0 0 0 0 0 0 0
52 29 26 29 26 26 23 19 13 13 19 16 13 10 0 0 0 0 0 0 0 0 0 3 3 3 3 6 6 3 6 3 3 0 0 0 0 0 0 0 0 0 0
39 29 16 23 26 26 23 19 16 16 10 13 10 6 0 3 3 3 0 0 0 0 6 3 6 6 6 3 3 3 0 0 3 0 0 0 0 0 0 0 0 0 0
32 29 26 29 29 29 32 23 16 10 13 13 13 3 0 0 13 10 6 3 6 6 6 6 3 3 3 3 3 3 0 0 0 0 0 0 0 0 0 0 0 0 0
16 19 26 29 26 16 19 19 23 16 13 16 16 13 3 10 10 16 10 6 6 6 6 6 3 3 3 3 3 0 0 0 0 0 0 0 0 0 0 0 0 0 0
10 16 13 16 19 16 16 19 16 6 6 6 10 6 3 6 10 13 16 13 6 3 3 3 3 3 3 3 0 0 0 0 0 0 3 0 0 0 0 0 0 0 0
10 19 19 13 16 16 16 16 16 13 6 6 3 3 6 3 3 10 10 6 6 3 3 3 3 3 3 0 0 0 0 0 0 0 0 0 0 0 0 0 0 0 0
10 13 13 16 19 13 16 16 16 16 13 13 10 6 13 3 0 3 10 6 6 6 3 3 3 0 0 0 0 0 0 0 0 0 0 0 0 0 0 0 0 0 0
Height
5912 5910 5908 5906 5904 5902 5900 5899 5896 5894 5892 5890 5888 5886 5884 5882 5880 5879 5878 5876 5875 5873 5872 5870 5869 5867 5866 5864 5862 5860 5859 5858 5856 5855 5853 5852 5851 5850 5848 5847 5846 5844 5843
5911 5909 5908 5906 5904 5902 5900 5898 5895 5893 5891 5889 5887 5884 5882 5880 5878 5876 5875 5874 5872 5871 5869 5867 5865 5864 5862 5861 5859 5857 5855 5854 5853 5851 5849 5848 5847 5846 5844 5843 5842 5840 5839
5909 5908 5906 5905 5903 5901 5899 5896 5894 5892 5890 5887 5885 5882 5880 5878 5875 5873 5872 5870 5869 5867 5865 5864 5862 5861 5859 5857 5855 5854 5852 5850 5849 5848 5846 5845 5843 5842 5840 5839 5838 5836 5835
5907 5906 5905 5903 5901 5899 5897 5895 5892 5890 5888 5885 5883 5880 5877 5874 5872 5870 5868 5866 5865 5863 5862 5860 5859 5857 5856 5854 5852 5850 5848 5847 5845 5844 5842 5841 5839 5838 5836 5835 5834 5832 5831
5904 5903 5902 5901 5899 5897 5895 5893 5890 5888 5885 5883 5880 5877 5874 5871 5869 5866 5864 5862 5860 5859 5858 5857 5855 5853 5852 5850 5849 5847 5845 5843 5842 5840 5839 5837 5835 5834 5832 5830 5829 5827 5826
5901 5900 5899 5897 5896 5894 5892 5890 5888 5885 5882 5880 5877 5874 5871 5868 5865 5863 5861 5859 5857 5855 5854 5853 5851 5850 5848 5846 5845 5843 5841 5840 5838 5836 5835 5833 5831 5829 5828 5826 5824 5822 5821
5897 5896 5895 5893 5892 5890 5888 5886 5884 5882 5879 5876 5874 5871 5868 5865 5862 5860 5858 5856 5854 5852 5851 5849 5848 5846 5844 5842 5841 5839 5837 5835 5834 5832 5830 5828 5826 5825 5823 5821 5819 5817 5815
5892 5891 5890 5889 5888 5886 5884 5882 5880 5878 5875 5873 5870 5867 5864 5862 5859 5857 5854 5852 5851 5849 5847 5845 5843 5842 5840 5839 5837 5835 5832 5831 5829 5827 5825 5823 5821 5820 5818 5816 5814 5812 5810
5887 5886 5885 5884 5883 5881 5879 5877 5876 5874 5871 5869 5866 5864 5861 5858 5855 5853 5850 5848 5846 5844 5843 5841 5839 5838 5836 5834 5832 5830 5828 5826 5824 5822 5820 5818 5816 5814 5812 5810 5808 5806 5804
5881 5881 5880 5879 5877 5876 5874 5872 5871 5869 5867 5864 5862 5859 5857 5854 5851 5848 5846 5844 5842 5840 5838 5836 5834 5832 5831 5829 5827 5825 5823 5821 5819 5817 5815 5813 5811 5809 5806 5804 5802 5800 5798
5875 5874 5874 5873 5871 5870 5868 5866 5865 5863 5861 5859 5857 5854 5852 5849 5846 5843 5841 5839 5837 5835 5833 5831 5829 5827 5825 5823 5821 5820 5818 5816 5814 5812 5809 5807 5805 5803 5800 5798 5796 5793 5791
5867 5867 5867 5866 5865 5864 5862 5861 5859 5857 5855 5853 5851 5849 5846 5844 5841 5839 5836 5834 5832 5830 5828 5826 5824 5822 5820 5818 5816 5814 5812 5810 5808 5806 5803 5801 5799 5796 5794 5791 5789 5786 5784
5860 5860 5859 5859 5858 5857 5855 5854 5852 5850 5848 5847 5845 5843 5840 5838 5836 5833 5831 5829 5826 5824 5822 5820 5818 5816 5814 5812 5810 5808 5806 5804 5801 5799 5797 5795 5792 5790 5787 5785 5782 5779 5777
5851 5851 5851 5850 5849 5848 5847 5846 5845 5843 5841 5839 5837 5835 5834 5832 5830 5828 5825 5823 5821 5818 5816 5814 5812 5810 5808 5806 5804 5802 5799 5797 5795 5793 5790 5788 5785 5783 5780 5778 5775 5772 5770
5842 5842 5842 5841 5841 5840 5839 5838 5837 5835 5834 5832 5830 5828 5826 5825 5823 5821 5819 5817 5815 5812 5810 5808 5806 5804 5802 5800 5797 5795 5793 5791 5788 5786 5783 5780 5778 5775 5773 5770 5767 5765 5762
5833 5833 5833 5832 5832 5831 5830 5829 5828 5826 5825 5823 5822 5820 5818 5817 5815 5814 5812 5810 5808 5806 5803 5801 5799 5798 5795 5793 5791 5789 5786 5784 5781 5779 5776 5773 5771 5768 5765 5762 5760 5757 5754
5823 5823 5823 5823 5822 5821 5821 5820 5819 5818 5816 5815 5813 5812 5809 5808 5807 5805 5803 5801 5800 5798 5796 5794 5792 5790 5788 5786 5784 5781 5779 5777 5774 5771 5769 5766 5763 5760 5757 5755 5752 5749 5746
5813 5813 5813 5813 5812 5811 5811 5810 5810 5808 5807 5806 5804 5803 5801 5799 5797 5795 5794 5792 5791 5789 5787 5785 5784 5782 5780 5778 5776 5773 5771 5769 5766 5764 5761 5758 5755 5752 5750 5747 5744 5741 5738
5802 5802 5802 5802 5802 5801 5801 5801 5800 5799 5797 5796 5795 5794 5792 5790 5788 5786 5784 5783 5782 5780 5778 5776 5775 5773 5772 5769 5767 5765 5763 5761 5758 5755 5753 5750 5747 5744 5741 5739 5736 5733 5730
5791 5791 5791 5791 5791 5791 5791 5791 5790 5789 5788 5786 5785 5784 5783 5781 5779 5777 5775 5774 5772 5771 5769 5767 5766 5764 5763 5761 5759 5756 5754 5752 5749 5747 5744 5742 5739 5736 5733 5730 5727 5725 5722
5780 5781 5781 5781 5781 5781 5780 5780 5779 5778 5777 5776 5775 5773 5772 5771 5770 5768 5766 5765 5763 5762 5760 5758 5757 5755 5753 5752 5749 5747 5745 5743 5740 5738 5735 5733 5730 5727 5725 5722 5719 5716 5713
5769 5770 5770 5770 5770 5770 5770 5769 5768 5767 5766 5765 5764 5763 5762 5762 5761 5759 5757 5755 5753 5752 5750 5749 5747 5746 5744 5742 5740 5738 5736 5733 5731 5728 5726 5723 5721 5718 5716 5713 5710 5707 5704
5759 5759 5760 5760 5759 5759 5759 5758 5757 5756 5754 5754 5753 5753 5752 5751 5750 5749 5748 5746 5744 5742 5740 5739 5737 5735 5734 5732 5730 5728 5725 5723 5721 5718 5716 5713 5711 5708 5706 5703 5700 5698 5695
5748 5749 5749 5749 5748 5748 5748 5747 5746 5744 5743 5743 5742 5742 5742 5741 5740 5739 5737 5736 5734 5732 5730 5729 5727 5725 5723 5721 5719 5717 5715 5713 5710 5708 5705 5703 5701 5698 5696 5693 5690 5688 5685
5738 5738 5738 5738 5737 5737 5737 5737 5736 5734 5732 5732 5732 5732 5731 5731 5729 5728 5726 5725 5724 5722 5720 5718 5717 5715 5713 5711 5709 5707 5705 5702 5700 5697 5695 5692 5690 5687 5685 5682 5680 5677 5675
5728 5728 5728 5728 5727 5727 5727 5727 5726 5725 5724 5723 5722 5722 5721 5720 5719 5717 5716 5714 5713 5711 5709 5708 5706 5704 5702 5700 5698 5696 5694 5692 5689 5687 5684 5681 5679 5677 5674 5671 5669 5667 5664
Wind_Speed
14 14 14 14 14 14 14 15 15 15 16 15 15 15 14 14 14 13 13 14 14 14 15 15 15 16 16 16 16 16 16 16 15 15 16 15 15 15 15 15 16 16 16
14 15 15 14 14 14 14 15 16 16 17 17 16 16 16 15 14 14 14 14 15 15 15 15 15 15 15 15 15 15 16 16 15 15 15 16 15 15 15 16 16 17 17
15 15 15 15 15 15 15 16 17 17 18 18 18 17 17 16 16 16 15 15 16 16 15 15 15 15 15 15 15 15 16 16 15 16 16 16 16 16 16 16 16 17 18
16 16 16 16 17 17 17 18 18 19 19 19 20 19 18 17 17 18 17 17 17 16 16 15 15 15 15 15 16 16 16 16 16 16 16 16 16 17 17 17 17 17 18
17 17 17 18 18 18 19 19 20 20 20 21 21 21 21 20 19 19 18 17 17 16 16 16 16 15 15 16 16 16 16 16 16 16 17 17 17 17 18 18 18 18 18
19 18 18 19 19 20 20 21 21 21 21 21 21 22 22 22 20 18 18 17 17 16 16 16 16 16 16 16 17 16 16 16 16 17 17 17 18 18 18 19 19 19 19
19 19 20 20 20 21 21 22 22 23 22 22 22 22 22 21 20 20 19 18 17 17 17 17 16 17 17 17 17 17 17 17 18 18 17 18 18 19 19 19 20 20 21
21 21 21 21 21 23 23 23 23 23 23 23 23 23 22 22 21 21 20 19 19 19 18 18 18 18 18 18 19 19 19 19 19 19 19 19 19 20 20 21 21 22 22
23 23 23 23 23 24 24 24 24 23 24 24 24 24 23 23 22 21 21 21 20 20 20 20 20 19 20 20 20 20 19 19 19 19 20 20 21 21 22 22 22 23 23
24 24 24 24 25 25 25 25 25 25 25 25 25 25 24 24 23 22 22 21 21 21 21 21 21 21 21 21 21 21 20 20 21 21 22 22 22 22 23 23 23 24 24
27 26 26 26 26 26 27 26 26 27 27 27 27 26 26 25 24 23 22 22 21 21 22 22 22 22 22 21 21 21 21 22 22 23 23 23 23 23 24 24 24 25 25
30 29 28 28 28 28 28 28 28 28 29 29 28 27 26 26 24 23 23 23 22 22 22 22 22 23 22 21 22 22 23 23 23 23 23 24 24 24 24 24 25 25 25
32 31 31 31 30 30 30 30 29 29 29 29 28 27 27 26 26 25 24 24 23 23 22 23 23 23 22 22 22 23 24 24 24 25 25 25 26 26 26 26 26 26 26
33 33 33 32 32 32 32 32 31 31 31 30 29 28 28 27 27 26 25 25 24 23 23 24 24 23 23 24 24 24 25 25 25 26 26 27 27 27 27 27 27 27 27
34 34 33 33 33 33 33 33 32 31 31 31 31 31 30 29 27 27 27 26 25 25 25 25 25 25 25 25 25 25 25 26 26 27 27 27 27 28 28 28 28 28 28
34 34 34 34 35 34 34 33 32 32 32 32 32 32 31 31 29 28 28 28 27 27 28 27 27 26 26 26 27 26 26 27 27 28 28 28 28 28 28 28 29 29 29
35 35 35 35 35 35 35 34 33 33 33 33 32 32 32 31 31 31 30 30 29 29 29 28 27 28 28 28 28 28 28 28 28 28 28 29 29 28 28 28 28 29 29
35 35 35 35 35 35 34 34 34 34 33 33 32 32 32 32 32 31 31 31 31 30 30 29 29 29 29 29 29 29 29 29 29 29 29 29 29 29 29 29 29 29 29
36 36 36 35 35 34 34 35 34 34 34 34 33 32 32 33 32 31 31 31 31 31 30 30 30 30 30 30 30 30 30 30 30 30 30 30 30 30 30 31 31 30 30
36 36 36 36 35 35 34 35 35 34 34 34 34 33 33 33 32 31 31 32 32 32 31 30 30 31 31 31 31 31 31 31 31 31 31 31 31 31 31 31 31 31 31
37 37 37 37 36 35 35 35 35 35 35 34 34 34 33 33 32 30 30 31 32 32 31 31 30 30 31 32 32 33 33 32 32 33 32 32 32 32 31 31 32 32 31
35 36 36 35 35 35 35 35 36 37 36 34 34 34 34 33 33 32 32 32 32 31 31 31 31 32 33 33 34 34 34 34 34 34 34 33 33 33 33 33 33 33 32
35 36 36 36 36 36 35 36 36 37 36 35 35 34 34 34 34 33 32 33 33 33 33 33 33 34 34 35 35 35 36 36 36 35 34 35 34 34 34 34 34 34 33
35 36 36 35 36 36 35 35 35 35 36 35 35 34 34 34 34 33 33 34 34 34 34 34 34 34 35 35 34 35 36 36 36 36 35 35 35 35 35 35 35 35 34
33 34 33 33 33 32 33 33 33 33 33 32 32 33 33 33 34 34 34 34 34 34 34 34 34 35 35 35 34 34 35 35 36 37 36 36 36 36 36 36 36 36 35
31 31 31 31 31 31 32 32 31 32 32 31 32 32 32 33 33 33 33 33 34 34 34 34 34 33 34 33 33 34 34 35 35 36 36 36 36 36 36 36 36 36 35
Wind_Direction
339 343 344 345 346 346 348 349 345 343 342 340 337 336 331 325 319 312 309 308 308 307 306 305 306 305 305 305 306 305 305 304 302 302 302 301 302 302 303 304 303 302 301
329 333 336 339 342 343 342 342 342 341 340 339 337 333 331 328 322 315 311 309 310 309 309 308 308 309 309 309 307 306 307 306 304 303 303 303 303 304 305 305 304 306 305
320 323 326 330 334 336 335 333 337 337 336 335 334 330 327 325 322 316 312 310 309 308 308 309 309 309 311 310 310 310 309 307 306 305 305 304 305 304 304 303 303 305 305
312 313 317 321 324 326 329 332 334 333 332 331 330 328 325 321 319 317 315 311 309 309 308 308 309 310 311 311 311 311 311 309 308 306 304 302 303 303 304 303 304 304 305
306 307 310 314 317 319 321 323 326 327 328 328 328 327 324 321 318 316 316 313 310 308 308 308 309 311 311 312 312 311 310 310 309 308 306 304 304 304 304 305 304 304 304
301 302 304 308 310 312 314 317 320 322 323 323 324 324 323 322 319 317 316 313 310 309 308 308 309 309 310 309 310 311 311 310 309 307 307 306 306 305 305 303 302 302 303
297 298 301 304 306 308 310 312 315 318 320 321 321 322 320 320 319 318 314 313 313 312 310 308 307 309 310 310 309 309 308 309 308 307 307 306 306 305 305 304 303 303 303
291 293 297 300 301 302 304 307 311 314 316 318 320 321 319 319 317 314 313 311 308 307 307 308 307 306 306 309 308 308 307 306 306 307 306 305 305 305 305 305 304 303 303
287 289 292 294 296 297 299 303 306 309 313 315 317 319 317 316 314 311 310 307 304 304 304 304 304 304 304 306 306 306 305 304 303 303 304 305 304 304 304 303 303 303 303
284 286 288 291 295 297 300 299 301 305 308 310 312 313 313 313 312 310 313 310 306 305 305 304 303 303 303 304 306 305 304 304 304 303 303 304 304 304 303 303 302 303 303
280 282 284 288 292 295 298 299 300 303 304 305 306 308 310 311 310 311 313 311 309 308 307 306 303 301 300 301 303 304 304 304 305 304 303 303 304 303 303 304 303 303 302
277 280 282 284 288 292 295 296 297 298 301 302 303 305 307 309 310 310 311 310 308 307 307 307 305 304 302 301 301 302 303 304 304 303 302 303 303 303 302 303 304 305 304
275 277 279 282 285 288 291 292 292 293 296 299 301 303 304 306 307 307 306 306 305 305 305 306 305 303 301 301 303 303 303 302 302 302 302 302 302 303 303 304 304 304 305
273 275 277 279 282 284 286 287 288 289 292 295 297 298 299 300 301 302 302 302 302 302 304 304 303 302 301 302 302 302 302 301 301 301 302 302 302 303 303 302 301 302 303
272 273 275 277 280 282 283 284 286 287 290 292 294 294 295 295 295 296 297 298 299 300 302 302 301 300 300 301 301 301 301 302 302 302 302 303 303 304 304 303 302 302 302
271 274 274 276 278 279 281 283 285 286 289 291 292 292 292 292 291 292 293 293 294 297 298 298 297 297 297 297 298 298 300 301 302 303 302 302 303 303 303 303 303 303 302
270 272 273 276 278 280 281 282 284 286 288 289 289 289 289 288 289 289 289 290 291 294 296 296 294 295 296 297 297 298 299 300 301 302 303 303 303 303 303 303 303 303 303
269 271 273 275 276 277 279 280 282 284 286 287 286 286 288 289 288 288 288 288 289 291 292 292 294 294 294 295 297 297 298 299 300 301 302 302 302 302 302 302 302 303 303
269 270 272 272 272 274 276 278 280 282 284 285 284 283 285 287 287 287 287 288 287 288 288 289 291 292 293 294 295 296 297 298 299 299 301 301 301 301 301 301 301 302 302
268 270 270 271 272 274 276 278 279 281 283 284 283 282 284 286 285 285 285 286 287 287 288 289 289 289 291 292 293 294 295 296 297 298 299 300 300 300 299 299 300 301 301
268 269 271 271 273 274 276 277 278 281 283 283 281 280 282 283 282 282 284 285 286 287 287 288 288 289 290 292 293 294 294 294 296 297 297 298 298 298 297 297 298 299 299
269 270 271 271 272 273 275 276 277 280 280 280 279 279 279 280 280 282 284 285 284 285 286 287 288 289 289 290 291 293 294 294 294 294 294 295 296 295 295 296 298 299 298
269 271 271 270 271 273 275 276 278 279 277 277 278 279 280 281 281 282 283 284 285 284 285 288 289 289 289 289 289 290 292 294 294 293 293 294 294 294 293 294 297 297 298
270 270 271 271 272 273 275 278 278 278 276 276 277 278 279 280 280 281 283 284 285 285 286 287 287 287 289 289 288 289 291 293 294 294 292 291 291 291 291 291 293 294 295
272 270 271 273 274 274 276 277 279 280 279 276 276 277 278 279 279 281 282 283 285 287 288 288 289 288 289 288 289 290 291 291 292 293 292 292 292 292 290 291 292 292 293
272 272 272 273 275 276 276 278 278 279 280 279 279 279 279 282 283 282 283 284 285 287 288 289 290 289 289 289 289 290 291 291 291 293 293 293 292 292 291 291 291 290 291